Regional Weather Roundup
Issued by NWS San Angelo, TX

Home | Current Version | Previous Version | Text Only | Print | Product List | Glossary On
Versions: 1 2 3 4 5 6 7 8 9 10 11 12 13 14 15 16 17 18 19 20 21 22 23 24 25 26 27 28 29 30 31 32 33 34 35 36 37 38 39 40 41 42 43 44 45 46 47 48 49 50
000
ASUS44 KSJT 120215
RWRSJT
WEST CENTRAL TEXAS REGIONAL WEATHER ROUNDUP
NATIONAL WEATHER SERVICE SAN ANGELO TX
800 PM CST MON NOV 11 2019

NOTE: "FAIR" INDICATES FEW OR NO CLOUDS BELOW 12,000 FEET WITH NO
SIGNIFICANT WEATHER AND/OR OBSTRUCTIONS TO VISIBILITY.

TXZ049-054-064>066-071>073-076>078-098-099-113-114-127-128-139-140-
154-155-168>170-120300
...LOCATIONS ACROSS WEST CENTRAL TEXAS...

CITY           SKY/WX    TMP DP  RH WIND       PRES   REMARKS
SAN ANGELO     FLURRIES  33  23  66 N22       30.50S WCI  21
ABILENE        CLEAR     30  16  56 N21G31    30.55R WCI  17
DYESS AFB      PTCLDY    30  14  52 N20G28    30.55R WCI  17
JUNCTION       MIX PCPN  32  27  81 N16G24    30.45R WCI  21
SWEETWATER     CLEAR     30  17  58 N12G20    30.57  WCI  21
BROWNWOOD      CLOUDY    32  19  59 N20G35    30.52R WCI  20
COLEMAN        MOCLDY    31  20  64 N21G31    30.52R WCI  18
SONORA         LGT RAIN  30  27  86 N21G29    30.49R WCI  17
OZONA          MIX PCPN  32  27  80 N21G28    30.50R WCI  20
BRADY          LGT RAIN  28  25  86 N29G36    30.45R WCI  13
$$

TEXAS PANHANDLE/OKLAHOMA PANHANDLE

CITY           SKY/WX    TMP DP  RH WIND       PRES   REMARKS
AMARILLO       CLEAR     20   7  57 N9        30.57R WCI   9
BORGER         CLEAR     26   5  40 N12       30.61R WCI  16
CANADIAN       CLEAR     22   6  50 N6        30.64R WCI  14
DALHART        PTCLDY    22   6  50 N8        30.58R WCI  12
DUMAS          CLEAR     20   6  55 N9G16     30.58  WCI   9
GUYMON         NOT AVBL
HEREFORD       CLEAR     25  10  54 N8        30.58R WCI  16
PAMPA          CLEAR     21   8  56 N9        30.59S WCI  11
PERRYTON       CLEAR     18   4  53 N8        30.61  WCI   8
$$

SOUTHERN PANHANDLE/SOUTH PLAINS/ROLLING PLAINS

CITY           SKY/WX    TMP DP  RH WIND       PRES   REMARKS
LUBBOCK        MOCLDY    28  11  48 N16G24    30.55R WCI  16
SNYDER         CLEAR     30  16  54 N16G25    30.55  WCI  19
CHILDRESS      CLEAR     28  10  46 N16       30.63R WCI  16
SEMINOLE       CLOUDY    32  18  57 NE13      30.57F WCI  22
$$

PERMIAN BASIN

CITY           SKY/WX    TMP DP  RH WIND       PRES   REMARKS
MIDLAND        CLOUDY    33  20  58 N18       30.53R WCI  22
ODESSA         CLOUDY    32  19  58 NE14G26   30.53R WCI  22
WINK           CLOUDY    34  21  59 N14       30.54R WCI  25
$$

FAR WEST/SOUTHWEST MOUNTAINS/TRANS PECOS

CITY           SKY/WX    TMP DP  RH WIND       PRES   REMARKS
ALPINE         CLOUDY    29  27  94 NE16      30.51R WCI  17
DRYDEN           N/A     37  29  72 N10G24    30.46R WCI  30
EL PASO        CLOUDY    43  27  53 E20       30.33R WCI  34
FORT STOCKTON  CLOUDY    31  27  85 N12       30.53R WCI  22
GUADALUPE PASS CLOUDY    26  21  81 NE38G45   30.38R WCI   8
MARFA          CLOUDY    29  26  89 N28G36    30.39R WCI  14
PECOS          CLOUDY    35  24  65 N12       30.57R WCI  27
$$

DALLAS/FORT WORTH METROPLEX

CITY           SKY/WX    TMP DP  RH WIND       PRES   REMARKS
DFW AIRPORT    CLOUDY    32  21  64 N29G36    30.46R WCI  18
FTW MEACHAM    PTCLDY    30  20  66 N25G36    30.49R WCI  16
DAL-EXECUTIVE  MOCLDY    32  22  66 N24G38    30.45R WCI  19
GRAND PRAIRIE  CLOUDY    33  22  64 NW10G24   30.50  WCI  25
ADDISON        NOT AVBL
MESQUITE       CLOUDY    34  25  69 NW23G33   30.45R WCI  22
LANCASTER      CLOUDY    33  24  69 N32G41    30.47R WCI  18
$$

NORTH CENTRAL TEXAS

CITY           SKY/WX    TMP DP  RH WIND       PRES   REMARKS
SHRMAN/DENISON NOT AVBL
GAINESVILLE    NOT AVBL
BRIDGEPORT     CLEAR     30  19  63 N15G31    30.57  WCI  19
DENTON         PTCLDY    31  19  61 N21G32    30.52R WCI  18
WAXAHACHIE     CLOUDY    32  26  79 N26G32    30.46R WCI  19
GRANBURY       CLOUDY    32  22  66 NW17G31   30.54R WCI  21
$$

WESTERN NORTH TEXAS

CITY           SKY/WX    TMP DP  RH WIND       PRES   REMARKS
WICHITA FALLS  CLEAR     28  16  60 N22G33    30.60R WCI  14
VERNON         CLEAR     29  16  56 N18       30.64  WCI  17
BRECKENRIDGE   CLEAR     31  17  55 MISG      30.57R
COMANCHE       CLOUDY    30  22  72 N21G35    30.51R WCI  17
$$

CENTRAL AND SOUTH CENTRAL TEXAS

CITY           SKY/WX    TMP DP  RH WIND       PRES   REMARKS
AUSTIN/BERGSTM CLOUDY    37  31  78 N25G36    30.37R WCI  25
WACO           CLOUDY    34  27  75 N21G32    30.44R WCI  22
HILLSBORO      CLOUDY    33  26  74 N25G35    30.44R WCI  20
TEMPLE         CLOUDY    32  30  93 N26G33    30.41R WCI  18
KILLEEN-GRAY   CLOUDY    31  26  83 NW21G33   30.40  WCI  18
FORT HOOD      CLOUDY    31  27  83 N29G38    30.42R WCI  17
GEORGETOWN     LGT RAIN  32  30  92 NW16G26   30.42R WCI  21
LAGO VISTA     LGT SNOW  32  31  96 MISG      30.38R
SAN MARCOS     CLOUDY    38  32  79 N29G36    30.35R WCI  26
NEW BRAUNFELS  CLOUDY    39  31  72 N31G44    30.32R WCI  27
RANDOLPH AFB   MOCLDY    39  30  70 N23G32    30.32  WCI  28
SAN ANTONIO    CLOUDY    39  30  70 N31G45    30.32R WCI  27
STINSON        CLOUDY    40  31  70 N21G33    30.31R WCI  30
PLEASANTON     NOT AVBL
LA GRANGE      CLOUDY    41  35  80 N26G33    30.29R WCI  30
GIDDINGS       CLOUDY    41  36  81 N20G32    30.34R WCI  32
$$

EAST TEXAS

CITY           SKY/WX    TMP DP  RH WIND       PRES   REMARKS
PARIS          CLOUDY    30  24  78 N30G37    30.41R WCI  15
CLARKSVILLE    NOT AVBL
TYLER          CLOUDY    35  30  82 N14G31    30.36R WCI  26
LONGVIEW       CLOUDY    38  35  89 N18G30    30.30R WCI  28
PALESTINE      CLOUDY    35  33  92 NW14G26   30.38R WCI  26
NACOGDOCHES    LGT RAIN  40  39  97 N15G24    30.28R WCI  32
$$

TEXAS HILL COUNTRY AND EDWARDS PLATEAU

CITY           SKY/WX    TMP DP  RH WIND       PRES   REMARKS
LLANO          CLOUDY    34  30  86 N20G30    30.49R WCI  22
HORSESHOE BAY  FLURRIES  34  32  93 N18G26    30.43R WCI  23
KERRVILLE      LGT SNOW  32  29  88 N25       30.37R WCI  19
FREDERICKSBRG  LGT RAIN  31  28  88 N26       30.39R WCI  17
ROCKSPRINGS    LGT RAIN  30  27  86 N23G36    30.39R WCI  17
HONDO          CLOUDY    40  29  64 N28G41    30.32R WCI  29
UVALDE         CLOUDY    40  32  73 N18G26    30.37R WCI  30
DEL RIO        LGT RAIN  41  32  70 NW17G31   30.44R WCI  32
$$

SOUTHEAST TEXAS

CITY           SKY/WX    TMP DP  RH WIND       PRES   REMARKS
COLLEGE STN    LGT RAIN  41  35  79 N22G33    30.32R WCI  31
CALDWELL       LGT RAIN  37  34  90 N17G37    30.35R WCI  27
CROCKETT       NOT AVBL
BRENHAM        CLOUDY    42  36  80 MISG        N/A
HUNTSVILLE     CLOUDY    41  34  76 N10G39    30.30R WCI  35
CONROE         CLOUDY    43  36  76 N14G30    30.26R WCI  36
HOUSTON BUSH   CLOUDY    47  39  74 N23G31    30.22R WCI  39
HOUSTON HOBBY  CLOUDY    48  44  86 N17G28    30.19R
PERLAND        LGT RAIN  50  46  86 N17G24    30.19R
WHARTON        CLOUDY    44  39  83 N20G37    30.23R WCI  35
$$

THE UPPER TEXAS COAST

CITY           SKY/WX    TMP DP  RH WIND       PRES   REMARKS
ORANGE         CLOUDY    59  56  92 N15G22    30.12R
PORT ARTHUR    CLOUDY    58  56  93 NW21G28   30.10R
GALVESTON      LGT RAIN  54  52  93 NW25G35   30.15R FOG
ANGLETON       LGT RAIN  47  44  90 N18G36    30.17R WCI  40
BAY CITY       LGT RAIN  48  47  94 N15G29    30.19R
$$

TEXAS COASTAL BEND, RIO GRANDE PLAINS DEEP SOUTH TEXAS

CITY           SKY/WX    TMP DP  RH WIND       PRES   REMARKS
VICTORIA       CLOUDY    45  36  70 N28G35    30.24R WCI  36
BEEVILLE       NOT AVBL
ROCKPORT       CLOUDY    47  41  80 N29G40    30.20R WCI  38
PORT ARANSAS   CLOUDY    50  47  88 N30G39    30.18R
PORT LAVACA    RAIN      47  42  81 N31G39    30.22R WCI  38
CORPUS CHRISTI RAIN      48  46  93 N25G35    30.19R FOG
KINGSVILLE NAS LGT RAIN  50  48  93 N22G29    30.19  FOG
COTULLA        LGT RAIN  46  36  68 N16G26    30.34R WCI  39
LAREDO         LGT RAIN  52  45  77 NW23G29   30.26R
BROWNSVILLE    CLOUDY    76  69  79 SE14      30.01R
PORT ISABEL    CLOUDY    76  70  82 SE9       30.02R
HEBBRONVILLE   LGT RAIN  52  47  81 N12G26    30.21R
MCALLEN        TSTM      75  71  87 SW3       30.04  VSB 3/4
WESLACO        NOT AVBL
FALFURRIAS     CLOUDY    55  51  88 N21G30    30.16R
EDINBURG       CLOUDY    72  67  87 NE13G20   30.05R
$$



USA.gov is the U.S. government's official web portal to all federal, state and local government web resources and services.